Regional Weather Roundup
Issued by NWS

Home | Current Version | Previous Version | Graphics & Text | Print | Product List | Glossary On
Versions: 1 2 3 4 5 6 7 8 9 10 11 12 13 14 15 16 17 18 19 20 21 22 23 24 25 26 27 28 29 30 31 32 33 34 35 36 37 38 39 40 41 42 43 44 45 46 47 48 49 50
000
ASUS44 KMEG 031010
RWRTN
TENNESSEE HOURLY STATE WEATHER ROUNDUP
NATIONAL WEATHER SERVICE MEMPHIS TN
500 AM CDT THU SEP 03 2015

TNZ002-004-019-021-049-052-054-088>092-031100-
WEST TENNESSEE

CITY           SKY/WX    TMP DP  RH WIND       PRES   REMARKS
MEMPHIS INTL   CLEAR     74  70  87 CALM      30.01R
NWS MEMPHIS      N/A    N/A N/A N/A MISG        N/A
JACKSON        CLEAR     69  67  93 S3        30.01S FOG
DYERSBURG      CLEAR     70  70 100 CALM      30.02R
UNION CITY     CLEAR    N/A N/A N/A CALM      30.00S
PARIS          CLEAR     64  63  94 CALM      30.02R
LEXINGTON      CLEAR     68  66  94 CALM      30.01R
$$

TNZ008-025-027-028-033-062-065-066-031100-
NORTH MIDDLE TENNESSEE

CITY           SKY/WX    TMP DP  RH WIND       PRES   REMARKS
NASHVILLE      PTCLDY    75  69  81 CALM      30.01S
CLARKSVILLE    CLEAR     67  65  93 CALM      30.01S
SMYRNA         PTCLDY    72  71  96 CALM      30.02S
COOKEVILLE     CLEAR     68  68 100 CALM      30.03S
CROSSVILLE     PTCLDY    68  65  90 CALM      30.08S
$$

TNZ061-075-076-078-094-096-097-031100-
SOUTH MIDDLE TENNESSEE

CITY           SKY/WX    TMP DP  RH WIND       PRES   REMARKS
FAYETTEVILLE   CLEAR     72  70  94 CALM      30.03R
TULLAHOMA      CLEAR     70  66  88 CALM      30.04F
WINCHESTER     CLEAR     70  70 100 CALM      30.04S
MCMINNVILLE    MOCLDY    70  70 100 CALM      30.04S VSB 1/2
COLUMBIA       CLEAR    N/A N/A N/A CALM      30.01R
SHELBYVILLE    CLEAR     72  72 100 CALM      30.03S
$$

TNZ017-018-042-046-047-031100-
NORTHEAST TENNESSEE

CITY           SKY/WX    TMP DP  RH WIND       PRES   REMARKS
TRI CITIES     MOCLDY    65  63  93 CALM      30.06R FOG
ELIZABETHTON   SUNNY     61  61 100 CALM      30.07S
$$

TNZ012-013-036-069-073-074-031100-
CENTRAL EAST TENNESSEE

CITY           SKY/WX    TMP DP  RH WIND       PRES   REMARKS
KNOXVILLE      CLOUDY    72  69  90 CALM      30.02R
OAK RIDGE      MOCLDY    71  68  90 CALM      30.04S
GATLINBURG     SUNNY     68  64  88 CALM      30.02S
MORRISTOWN     SUNNY     68  64  88 CALM      30.05S
$$

TNZ083-085-099-031100-
SOUTHEAST TENNESSEE

CITY           SKY/WX    TMP DP  RH WIND       PRES   REMARKS
CHATTANOOGA    MOCLDY    75  71  87 CALM      30.01S
$$

SKY/WX REPORTED AS FAIR MEANS FEW OR NO CLOUDS BELOW
12 THOUSAND FEET.



USA.gov is the U.S. government's official web portal to all federal, state and local government web resources and services.